Wind_Speed
2 3 4 5 5 6 7 8 9 9 9 9 9 9 9 9 10 11 12 13 14 15 17 18 20 22 23 25 26 27 28 28 29 29 28 27 27 26 25 25 24 24 24 24 23 22 22 22 21 20 18 16
3 3 3 4 5 5 7 8 8 8 8 9 9 10 10 11 12 13 14 15 17 18 19 21 22 24 25 26 27 27 27 27 27 27 26 25 24 23 22 21 21 20 20 20 20 20 20 19 20 19 17 16
3 3 3 3 4 5 6 7 7 8 8 9 10 10 11 13 14 15 16 18 19 20 22 23 25 25 26 26 26 26 25 25 24 23 22 21 19 19 18 18 18 18 18 18 18 18 18 18 18 17 18 18
2 2 2 3 4 5 6 6 7 7 8 9 11 12 13 14 15 16 18 20 21 22 24 25 25 25 25 24 24 23 22 21 19 18 17 16 16 16 17 17 17 17 18 18 18 19 19 19 19 19 20 21
2 1 1 2 3 4 5 5 6 7 9 10 12 13 14 15 16 18 20 22 23 24 24 24 24 24 23 22 21 20 18 17 16 15 16 16 17 18 18 18 18 19 20 21 21 21 22 22 23 24 24 24
0 0 1 2 2 3 4 5 6 8 10 11 13 14 15 17 19 21 22 23 23 24 24 23 23 22 21 19 17 16 15 15 16 17 18 19 20 20 20 20 21 23 23 24 24 24 25 26 27 26 26 26
1 1 1 1 1 2 3 5 7 9 10 12 13 15 17 19 20 22 22 23 23 23 23 22 21 19 18 16 16 15 16 17 18 19 20 21 22 22 22 23 25 26 26 26 25 26 26 27 27 27 27 27
2 3 3 2 2 2 4 6 8 9 11 13 14 16 18 20 21 22 22 23 23 22 20 19 17 16 15 15 15 16 17 19 19 20 21 22 23 24 25 26 26 25 25 24 25 26 27 28 28 28 27 27
3 4 3 3 2 3 5 6 8 10 12 14 16 18 19 20 21 22 22 22 21 19 18 17 16 15 15 15 16 18 19 20 20 22 24 25 26 26 26 25 24 24 24 25 26 27 28 28 28 27 27 27
4 3 3 2 2 3 5 6 9 11 12 15 17 18 19 20 21 22 21 20 18 17 16 16 16 15 16 17 18 20 21 21 23 25 27 27 27 26 24 24 24 24 25 26 27 27 26 27 27 27 28 29
4 3 2 1 2 3 5 7 9 11 13 16 17 18 19 21 21 21 19 18 16 16 16 16 16 16 17 19 20 21 22 24 25 27 27 26 25 24 24 24 24 24 25 26 25 25 27 27 28 29 31 32
4 2 1 1 2 4 6 8 10 12 15 16 17 19 20 21 20 19 17 15 15 16 16 16 17 17 19 20 21 22 23 25 26 26 25 24 24 23 23 23 23 25 25 25 25 27 29 30 31 32 32 32
3 2 1 1 3 5 7 9 11 13 15 16 17 19 20 19 18 16 14 14 15 16 16 17 17 18 19 21 22 23 24 25 24 24 23 23 22 22 21 23 24 25 24 25 27 28 29 30 31 30 29 28
3 2 2 2 3 6 8 10 12 13 14 15 17 19 19 17 15 14 13 15 16 16 16 17 17 19 20 21 22 23 23 23 23 22 22 21 20 21 23 24 24 24 25 25 27 28 28 28 27 26 26 27
4 3 3 3 4 6 8 10 12 12 14 16 18 18 17 15 13 13 14 15 16 16 17 17 18 20 21 21 22 22 22 21 21 20 19 19 21 23 24 24 23 23 23 24 25 26 26 25 25 25 27 28
5 4 3 4 5 7 9 10 11 12 15 17 18 17 15 13 12 13 14 15 16 16 17 18 19 21 21 21 21 20 19 19 19 19 19 20 22 23 23 22 21 21 22 23 23 23 24 24 25 26 28 28
5 4 4 4 5 7 9 10 11 13 15 17 16 15 12 11 12 13 15 16 16 16 17 19 20 20 20 19 19 18 18 18 18 19 21 22 24 23 21 20 20 20 21 22 22 23 24 24 25 27 28 28
6 5 5 5 6 7 8 10 11 13 15 15 14 12 10 10 11 13 15 16 16 17 18 19 19 19 19 18 17 17 18 20 20 21 23 23 23 22 20 20 20 20 21 21 21 23 24 25 27 28 28 28
7 5 4 5 6 7 8 9 11 13 14 13 12 10 9 10 12 14 15 16 16 17 18 18 18 18 17 17 18 19 20 21 21 22 24 23 22 21 20 20 20 20 20 20 22 24 26 27 27 28 28 28
6 5 4 5 6 7 8 9 11 12 12 11 9 8 9 10 12 14 15 15 16 16 16 17 17 17 18 19 20 21 21 21 21 22 23 22 20 21 20 20 20 20 19 20 23 26 27 27 28 28 28 28
6 5 4 4 5 6 7 8 10 11 10 9 7 7 9 10 12 14 15 15 15 15 15 16 17 18 19 20 21 22 22 22 22 21 22 21 21 22 21 20 20 20 20 21 24 26 27 28 28 29 28 28
6 5 4 4 4 5 6 8 9 9 8 6 6 7 9 11 13 14 14 14 13 13 15 17 18 20 21 22 22 22 22 22 21 20 21 22 22 23 22 20 20 20 21 23 23 24 26 28 29 29 29 28
6 4 3 3 3 4 5 7 8 7 6 5 6 8 10 11 13 13 13 12 12 14 16 19 20 21 22 22 22 21 22 21 20 20 21 23 24 24 23 19 18 19 22 24 24 23 24 27 29 29 29 29
6 5 3 2 2 3 4 6 6 5 4 5 7 9 11 12 13 13 12 12 12 15 18 20 21 21 22 22 22 21 21 21 21 20 22 24 24 25 25 21 18 17 19 23 23 23 25 25 26 28 29 29
7 5 3 2 1 2 3 4 4 4 4 6 8 11 12 12 12 12 12 12 14 17 19 20 21 21 21 22 22 22 21 21 21 21 21 24 25 26 26 24 21 17 19 22 21 21 21 21 23 26 28 28
7 5 3 2 0 1 2 3 4 4 5 7 10 12 13 12 12 12 12 14 16 18 19 20 21 21 21 22 22 22 22 22 22 22 22 24 25 26 26 27 26 23 22 22 21 22 20 17 17 20 23 27
8 5 4 2 1 0 1 3 4 5 7 9 11 13 13 13 12 12 13 15 17 19 19 19 20 21 22 22 22 22 22 22 22 23 23 24 25 26 26 27 27 28 27 24 23 22 20 18 17 13 16 21
8 6 4 4 3 2 2 3 5 7 9 11 13 13 13 13 13 13 14 16 18 19 19 19 20 21 22 22 22 22 23 23 23 23 24 25 25 25 25 26 27 28 28 27 25 21 17 17 16 12 13 18
9 7 6 5 4 3 4 6 8 9 11 13 14 13 13 13 13 14 15 17 18 19 20 20 20 21 21 21 22 22 23 23 23 23 23 24 25 25 25 25 26 26 27 28 27 25 21 15 10 11 17 17
10 8 7 6 5 4 6 8 10 11 12 14 14 14 14 13 14 16 16 18 19 20 20 20 20 20 21 21 22 22 22 22 22 23 23 23 24 24 24 25 25 25 26 27 26 27 25 19 14 17 23 21
11 10 9 7 6 6 7 8 11 13 14 15 15 14 14 14 16 16 17 18 20 21 20 20 20 20 20 21 21 21 21 21 21 22 22 22 22 23 23 24 25 25 25 25 25 25 24 22 21 24 26 26
Wind_Direction
331 340 347 352 355 359 1 360 2 5 8 9 9 9 6 2 357 353 348 344 341 339 337 336 336 334 332 330 328 327 326 326 325 325 325 326 327 328 329 330 331 331 332 334 335 336 338 340 342 344 345 344
329 336 341 346 348 351 354 356 0 4 8 8 6 2 357 352 349 346 342 339 338 337 335 334 332 330 328 328 327 327 327 326 327 328 330 332 333 335 336 336 338 339 340 341 343 344 346 348 349 349 349 350
320 321 329 337 340 347 352 357 2 6 6 2 358 355 351 348 346 343 339 338 336 333 331 329 328 328 328 329 329 329 329 330 332 334 336 339 341 344 347 349 350 351 352 354 356 357 359 359 358 357 359 0
300 299 314 330 343 350 356 4 6 6 0 357 354 350 349 347 344 340 336 334 332 330 329 329 330 331 332 332 333 333 335 338 340 343 347 352 356 0 3 4 3 5 7 9 11 11 12 12 11 11 12 11
287 289 314 347 358 358 5 8 5 2 356 353 350 348 347 343 338 335 333 332 331 331 332 333 335 336 337 337 339 341 345 350 354 360 6 11 15 17 18 18 18 21 22 22 23 22 22 22 22 23 21 20
312 312 37 18 12 11 11 6 2 358 352 350 347 345 342 337 335 333 333 334 334 335 338 339 340 342 344 347 351 355 1 6 13 18 22 26 28 30 28 27 27 28 28 27 27 26 26 26 27 28 27 26
92 111 78 53 46 29 13 4 360 353 348 346 343 340 338 336 336 336 337 338 340 342 343 345 348 352 356 0 5 11 18 22 28 31 33 35 35 34 31 29 29 28 27 26 26 26 28 30 32 31 30 29
148 125 106 94 74 40 13 3 353 347 345 342 339 339 338 339 339 340 341 342 344 346 349 354 359 4 9 13 20 27 32 35 37 38 38 37 35 33 30 29 29 28 28 28 29 30 31 33 33 32 32 31
142 129 114 100 68 24 6 355 347 345 343 340 339 340 341 342 342 343 344 346 348 352 360 6 11 16 21 27 34 39 40 41 40 39 39 36 34 33 31 31 31 32 32 32 33 33 34 34 35 35 35 33
141 131 117 97 36 9 357 348 347 345 341 340 341 343 344 345 345 346 348 352 356 4 11 16 21 27 34 39 42 43 42 40 39 38 38 36 35 34 32 32 33 34 34 35 36 36 36 36 37 36 35 32
145 129 118 78 2 357 348 347 345 341 341 343 345 346 347 348 349 351 353 359 7 16 22 26 34 39 44 45 45 45 42 40 39 39 37 36 34 34 33 33 34 36 37 38 37 36 36 35 34 33 31 29
141 128 128 338 346 347 344 345 341 340 344 346 348 348 349 350 352 355 1 11 20 26 32 39 45 48 48 47 46 45 43 41 40 39 37 35 34 34 34 33 36 39 39 37 35 34 33 31 31 30 29 28
152 173 233 307 330 339 339 339 339 343 348 349 350 350 350 353 357 5 13 23 31 37 44 51 53 52 50 47 46 44 43 42 41 39 37 34 34 34 35 37 40 40 37 34 33 33 31 31 31 30 30 29
177 204 249 298 321 332 335 338 343 349 352 353 353 352 354 359 7 17 26 34 43 50 55 58 56 54 51 48 46 44 43 42 40 39 36 34 35 36 38 40 39 37 35 33 33 33 32 33 32 32 33 32
190 216 251 292 317 327 334 340 348 354 356 356 354 355 359 6 18 29 38 46 54 60 61 60 58 55 52 48 46 43 42 41 39 39 37 37 38 39 40 40 37 36 36 35 35 35 36 37 37 37 37 35
200 223 251 289 311 324 337 347 354 358 359 357 356 0 6 15 28 39 49 57 63 65 63 60 58 56 52 49 47 44 42 42 41 42 41 41 42 43 42 40 39 39 40 39 39 40 42 42 41 41 39 36
207 227 256 288 310 329 344 354 360 1 360 358 0 7 14 24 37 49 60 66 67 65 62 59 56 55 52 50 48 47 47 46 46 46 43 44 46 45 44 44 43 44 46 45 46 47 47 46 45 43 39 38
214 233 262 293 318 338 352 0 4 3 1 1 7 15 24 35 48 61 69 71 68 63 60 58 55 55 53 52 53 53 52 50 49 49 47 45 46 47 47 49 49 51 52 51 53 53 51 48 46 44 41 39
218 242 270 303 330 346 357 4 6 4 3 7 15 27 37 47 59 69 73 71 67 63 60 58 57 57 57 59 60 59 56 53 51 52 51 48 47 51 53 54 56 56 57 57 58 55 52 49 46 45 42 39
224 250 279 312 337 350 1 8 8 6 8 14 26 39 49 60 70 74 73 70 67 65 62 62 62 63 65 65 64 62 60 57 54 54 54 52 50 55 60 62 62 61 61 62 61 56 52 50 47 45 42 37
231 254 285 318 340 352 6 12 10 10 15 24 39 53 63 74 79 77 73 69 68 67 66 68 70 71 71 68 67 65 63 60 57 56 57 57 56 60 66 69 67 64 63 64 62 58 53 50 46 43 40 35
234 253 287 319 341 356 10 14 14 17 24 40 59 70 79 85 85 80 75 71 69 70 72 76 77 76 74 72 70 68 66 65 62 62 62 61 62 65 70 72 71 67 65 64 62 59 54 50 46 42 39 35
232 247 278 317 341 1 16 17 20 27 39 64 78 86 91 91 89 84 79 75 72 75 78 80 80 78 78 76 74 72 71 71 68 68 68 65 64 67 71 74 73 69 66 66 63 59 54 48 44 40 39 35
227 242 267 303 339 9 22 23 29 44 66 87 94 98 101 98 93 87 83 79 77 81 82 82 81 80 80 79 78 78 76 75 72 71 72 70 67 66 69 71 74 73 68 66 62 56 51 47 43 38 37 35
225 237 254 278 337 17 27 35 49 74 95 105 108 109 109 103 96 90 86 84 84 86 85 85 84 82 82 82 82 81 79 78 75 72 72 73 70 67 67 66 69 71 68 67 63 55 46 39 39 37 37 36
225 233 239 244 239 24 37 58 79 105 119 120 120 119 114 105 99 94 91 91 91 89 87 87 87 86 85 85 85 83 82 81 78 74 71 72 71 67 66 63 62 61 61 64 65 62 54 40 31 26 30 35
222 227 222 213 201 161 64 92 113 128 134 130 127 124 116 108 102 97 97 97 95 93 91 90 90 90 88 87 88 87 85 82 79 76 72 71 71 68 66 63 60 57 57 57 56 57 55 50 44 26 23 34
219 219 210 202 195 173 128 122 135 144 141 135 131 126 118 112 106 102 103 103 101 98 96 94 93 93 92 91 90 89 86 83 80 77 74 72 70 68 66 63 60 58 56 55 53 55 52 46 47 33 24 35
213 212 208 204 197 175 157 149 152 155 147 140 136 129 121 115 110 109 110 109 106 103 100 99 97 95 95 93 91 88 85 82 80 76 73 70 69 67 65 63 61 58 56 54 53 55 58 56 45 25 25 33
208 205 205 204 197 180 169 166 163 159 152 145 140 132 125 120 116 116 116 113 109 106 104 103 101 99 97 94 91 87 84 81 78 75 72 69 67 66 64 62 60 57 55 53 51 50 54 57 46 30 28 25
205 203 202 199 193 180 173 176 170 161 155 149 142 136 129 124 123 122 120 117 112 110 108 107 105 102 98 94 90 87 84 81 77 74 71 68 66 64 62 60 57 55 52 49 48 46 46 45 39 33 29 24
Height
1563 1563 1563 1562 1562 1561 1561 1560 1559 1559 1558 1557 1556 1555 1554 1553 1553 1552 1551 1550 1549 1547 1546 1544 1543 1541 1539 1537 1535 1533 1531 1529 1527 1525 1523 1521 1519 1518 1516 1514 1512 1510 1508 1507 1506 1504 1503 1502 1500 1500 1499 1499
1563 1563 1563 1562 1562 1561 1561 1560 1559 1559 1558 1557 1556 1555 1554 1554 1553 1552 1551 1549 1548 1547 1545 1544 1542 1540 1538 1536 1534 1531 1529 1527 1526 1524 1522 1520 1518 1516 1515 1513 1511 1509 1508 1507 1505 1504 1503 1501 1500 1499 1498 1498
1563 1563 1562 1562 1562 1561 1561 1560 1559 1559 1558 1557 1556 1555 1554 1553 1552 1551 1550 1549 1548 1546 1544 1542 1540 1538 1536 1534 1532 1530 1528 1526 1524 1523 1521 1519 1517 1516 1514 1512 1511 1509 1508 1506 1505 1503 1502 1501 1500 1499 1498 1497
1563 1563 1562 1562 1561 1561 1560 1560 1559 1559 1558 1557 1556 1555 1554 1553 1552 1551 1550 1548 1546 1545 1543 1541 1539 1537 1534 1532 1530 1528 1527 1525 1524 1522 1520 1519 1517 1515 1514 1512 1510 1509 1507 1505 1504 1503 1502 1501 1500 1498 1497 1497
1562 1562 1562 1562 1561 1561 1560 1560 1559 1559 1558 1557 1556 1555 1554 1553 1552 1550 1548 1547 1545 1543 1541 1539 1537 1535 1533 1531 1529 1527 1526 1524 1523 1521 1520 1518 1516 1515 1513 1511 1510 1508 1506 1505 1503 1502 1501 1500 1499 1498 1497 1497
1562 1562 1562 1561 1561 1561 1560 1560 1559 1559 1558 1557 1556 1555 1554 1553 1551 1549 1547 1545 1544 1542 1539 1537 1535 1533 1531 1530 1528 1527 1525 1524 1522 1520 1519 1517 1516 1514 1513 1511 1509 1507 1506 1504 1503 1502 1501 1500 1499 1498 1497 1496
1562 1561 1561 1561 1561 1561 1560 1560 1559 1558 1557 1556 1555 1554 1553 1552 1550 1548 1546 1544 1542 1540 1538 1536 1534 1532 1531 1529 1527 1526 1524 1523 1521 1520 1518 1517 1516 1514 1513 1510 1508 1507 1505 1504 1503 1503 1502 1501 1500 1499 1498 1497
1561 1561 1561 1561 1561 1561 1560 1559 1559 1558 1557 1556 1555 1554 1552 1550 1549 1547 1545 1543 1541 1539 1537 1535 1534 1532 1530 1529 1527 1526 1524 1523 1521 1520 1519 1517 1515 1513 1511 1509 1508 1507 1506 1505 1504 1503 1502 1501 1500 1499 1498 1497
1561 1561 1561 1561 1560 1560 1559 1559 1558 1557 1556 1555 1554 1552 1551 1549 1547 1546 1544 1542 1540 1538 1536 1535 1533 1532 1530 1529 1527 1526 1524 1523 1521 1520 1518 1516 1514 1512 1511 1510 1509 1508 1507 1506 1505 1504 1503 1502 1501 1500 1499 1498
1560 1560 1560 1560 1560 1559 1559 1558 1557 1556 1555 1554 1553 1551 1550 1548 1546 1544 1543 1541 1539 1537 1536 1534 1533 1531 1530 1528 1527 1525 1524 1522 1520 1518 1516 1515 1514 1513 1512 1511 1510 1509 1507 1506 1505 1505 1504 1504 1502 1501 1500 1498
1560 1560 1560 1559 1559 1558 1558 1557 1556 1555 1554 1553 1552 1550 1549 1547 1545 1544 1542 1540 1538 1537 1536 1534 1532 1531 1529 1528 1526 1524 1523 1521 1519 1517 1516 1515 1515 1514 1512 1511 1510 1509 1508 1507 1507 1506 1505 1503 1502 1500 1499 1497
1559 1559 1559 1559 1558 1558 1557 1556 1555 1554 1553 1552 1551 1549 1548 1546 1545 1543 1541 1540 1538 1537 1535 1534 1532 1531 1529 1527 1526 1524 1523 1521 1519 1518 1517 1517 1516 1514 1513 1512 1511 1510 1509 1508 1507 1505 1503 1502 1500 1499 1498 1497
1558 1558 1558 1558 1558 1557 1556 1555 1554 1553 1552 1551 1550 1549 1547 1545 1544 1542 1541 1539 1538 1537 1535 1534 1532 1531 1529 1527 1526 1524 1523 1521 1520 1519 1518 1518 1516 1515 1514 1512 1510 1509 1508 1507 1506 1504 1503 1502 1501 1500 1500 1500
1558 1558 1558 1557 1557 1556 1555 1554 1554 1552 1552 1551 1549 1548 1546 1545 1544 1542 1541 1539 1538 1537 1536 1534 1533 1531 1529 1527 1526 1524 1523 1522 1521 1520 1519 1519 1518 1516 1513 1511 1510 1509 1508 1507 1506 1505 1504 1503 1503 1503 1503 1501
1557 1557 1557 1556 1556 1555 1555 1554 1553 1552 1551 1550 1548 1547 1545 1544 1543 1542 1540 1539 1538 1537 1536 1535 1533 1531 1529 1527 1526 1525 1524 1523 1522 1521 1521 1520 1518 1515 1513 1512 1511 1510 1509 1509 1508 1507 1506 1506 1506 1505 1503 1501
1556 1556 1556 1556 1555 1555 1554 1553 1552 1551 1550 1548 1547 1546 1545 1544 1543 1542 1540 1539 1538 1538 1536 1535 1533 1531 1529 1528 1526 1525 1524 1524 1523 1522 1521 1520 1517 1515 1513 1513 1513 1512 1511 1510 1509 1509 1508 1508 1507 1505 1503 1501
1556 1556 1556 1555 1555 1554 1553 1552 1551 1550 1549 1547 1546 1545 1544 1543 1542 1542 1541 1539 1539 1538 1536 1535 1533 1531 1530 1529 1528 1527 1526 1525 1524 1522 1521 1519 1517 1516 1515 1515 1514 1513 1512 1511 1510 1510 1510 1509 1507 1505 1503 1501
1555 1555 1555 1554 1553 1553 1552 1551 1550 1549 1548 1547 1546 1545 1544 1543 1543 1542 1541 1540 1539 1538 1536 1534 1533 1532 1531 1530 1529 1528 1527 1525 1524 1522 1520 1518 1517 1517 1516 1515 1514 1513 1512 1512 1512 1511 1510 1508 1506 1505 1503 1502
1554 1554 1554 1553 1552 1551 1551 1550 1549 1548 1547 1546 1545 1545 1544 1543 1542 1542 1541 1540 1539 1538 1536 1535 1534 1533 1532 1531 1530 1528 1527 1525 1524 1522 1521 1520 1519 1518 1517 1516 1515 1514 1513 1513 1512 1511 1509 1508 1506 1505 1503 1502
1553 1553 1552 1552 1551 1550 1550 1549 1548 1548 1547 1546 1545 1544 1544 1543 1542 1542 1541 1540 1540 1539 1537 1536 1535 1534 1533 1532 1530 1528 1527 1526 1525 1523 1522 1522 1521 1519 1518 1516 1515 1515 1514 1514 1512 1511 1509 1508 1506 1505 1504 1502
1552 1552 1551 1551 1550 1550 1549 1549 1548 1547 1546 1546 1545 1545 1544 1543 1542 1542 1541 1541 1540 1540 1538 1537 1536 1535 1533 1532 1530 1529 1528 1527 1526 1525 1524 1524 1522 1520 1518 1517 1517 1516 1515 1514 1512 1511 1510 1508 1507 1505 1504 1503
1551 1550 1550 1550 1549 1549 1548 1548 1547 1546 1546 1546 1545 1544 1544 1543 1543 1542 1541 1541 1541 1540 1539 1538 1536 1535 1533 1532 1531 1530 1529 1528 1528 1527 1526 1525 1523 1521 1520 1519 1518 1517 1516 1514 1512 1511 1510 1508 1507 1506 1504 1503
1550 1549 1549 1549 1548 1548 1548 1547 1546 1546 1546 1545 1545 1544 1544 1543 1543 1542 1542 1542 1541 1540 1539 1538 1536 1535 1534 1533 1532 1531 1531 1530 1530 1529 1527 1526 1524 1522 1521 1520 1519 1518 1516 1514 1513 1511 1510 1508 1507 1506 1505 1504
1548 1548 1548 1548 1547 1547 1547 1546 1546 1546 1545 1545 1545 1544 1543 1543 1543 1542 1542 1542 1541 1540 1539 1538 1537 1536 1535 1534 1533 1533 1532 1531 1531 1530 1528 1527 1525 1523 1522 1521 1520 1519 1517 1514 1513 1511 1510 1509 1508 1507 1506 1504
1547 1547 1547 1547 1546 1546 1546 1546 1545 1545 1545 1545 1544 1544 1543 1543 1543 1542 1542 1542 1541 1540 1539 1538 1537 1536 1535 1535 1534 1534 1533 1532 1532 1531 1530 1527 1526 1525 1523 1522 1521 1520 1517 1514 1513 1512 1511 1510 1509 1508 1506 1505
1546 1546 1546 1545 1545 1545 1545 1545 1545 1544 1545 1544 1544 1544 1543 1543 1543 1543 1542 1542 1541 1540 1539 1539 1538 1537 1537 1535 1535 1534 1534 1533 1533 1532 1530 1528 1527 1526 1524 1523 1522 1520 1517 1515 1515 1513 1512 1512 1509 1508 1507 1505
1544 1544 1544 1544 1544 1544 1544 1544 1544 1544 1544 1544 1544 1544 1543 1543 1543 1542 1542 1541 1540 1540 1539 1539 1539 1538 1537 1536 1536 1535 1535 1534 1533 1532 1531 1529 1528 1526 1525 1524 1522 1520 1518 1517 1515 1514 1514 1514 1512 1511 1510 1507
1543 1543 1543 1543 1543 1543 1543 1543 1543 1544 1544 1544 1544 1543 1543 1543 1543 1542 1541 1541 1540 1540 1540 1540 1539 1538 1538 1537 1537 1536 1535 1534 1534 1533 1532 1530 1529 1527 1526 1525 1523 1521 1520 1518 1516 1515 1515 1515 1514 1515 1513 1508
1541 1541 1541 1542 1542 1542 1542 1542 1542 1543 1543 1543 1543 1543 1543 1543 1542 1542 1542 1541 1540 1540 1540 1540 1540 1539 1539 1538 1537 1536 1535 1535 1534 1533 1532 1531 1530 1528 1527 1526 1524 1522 1521 1519 1518 1517 1516 1516 1517 1517 1513 1509
1540 1540 1540 1540 1540 1541 1541 1541 1541 1542 1542 1542 1542 1542 1542 1542 1542 1542 1542 1541 1540 1540 1540 1541 1540 1540 1539 1539 1537 1536 1536 1535 1534 1533 1532 1531 1530 1529 1528 1526 1525 1523 1522 1520 1519 1518 1517 1517 1518 1516 1512 1509
1538 1538 1539 1539 1539 1539 1539 1540 1540 1540 1541 1541 1541 1541 1542 1542 1542 1542 1542 1541 1540 1540 1541 1541 1541 1541 1540 1539 1538 1537 1536 1535 1534 1533 1532 1532 1531 1529 1528 1526 1525 1523 1522 1520 1519 1518 1517 1517 1516 1513 1510 1508